Back to catalog

SL-8 DEB

AliveLEO
NORAD 21958·DEBRIS·🇷🇺 Russia

Launched Feb 12, 1991 from Plesetsk Cosmodrome

Loading…

Next Passes (next 24 hours)

TLE

FreshSource: Space-Track

Epoch: Sep 14, 2026, 00:56 UTC

1 21958U 91009CG  26257.03922360 -.00000055  00000-0 -40039-3 0  9992
2 21958  73.9613 104.8937 0133717  28.3165 124.2960 12.16812543577595

Track SL-8 DEB in real time with AllMySat

Download on the App Store